Location: College Park
(38.9810°N, 76.9370°W)
Time: 20:28:13
(UTC-04:00)

ISS - Visible Passes

Search period start: 21 May 2018 00:00
Search period end: 31 May 2018 00:00
Orbit: 402 x 407 km, 51.6° (Epoch: 22 May)

Date Brightness Start Highest point End Pass type
(mag) Time Alt. Az. Time Alt. Az. Time Alt. Az.
21 May -0.4 02:36:04 10° NNW 02:37:34 12° NNE 02:39:02 10° NE visible
21 May -2.7 04:11:32 10° NW 04:14:41 46° NE 04:17:51 10° ESE visible
21 May -2.8 20:50:54 10° SSW 20:53:40 26° SE 20:56:26 10° ENE visible
21 May -2.0 22:27:04 10° W 22:30:04 32° NNW 22:33:03 10° NE visible
22 May -0.2 00:06:25 10° NNW 00:07:21 11° NNW 00:08:16 10° N visible
22 May -0.1 01:44:36 10° N 01:45:03 10° N 01:45:30 10° NNE visible
22 May -1.6 03:19:32 10° NNW 03:22:24 27° NNE 03:25:15 10° E visible
22 May -3.2 04:55:55 10° WNW 04:58:54 33° SW 05:01:52 10° SSE visible
22 May -3.2 21:34:34 10° WSW 21:37:47 58° NW 21:41:01 10° NE visible
22 May -0.4 23:13:04 10° NW 23:14:50 14° NNW 23:16:36 10° NNE visible
23 May -0.9 02:27:38 10° NNW 02:30:02 18° NNE 02:32:24 10° ENE visible
23 May -4.0 04:03:33 10° NW 04:06:48 70° SW 04:10:02 10° SE visible
23 May -0.8 22:19:58 10° WNW 22:22:22 18° NNW 22:24:45 10° NNE visible
24 May -0.5 01:35:48 10° NNW 01:37:34 14° NNE 01:37:41 14° NNE visible
24 May -1.5 21:27:06 10° W 21:29:58 27° NNW 21:32:50 10° NNE visible
24 May -0.2 23:06:50 10° NNW 23:07:19 10° N 23:07:48 10° N visible
25 May -0.4 00:44:07 10° N 00:45:02 11° NNE 00:45:57 10° NNE visible
25 May -0.5 22:13:16 10° NW 22:14:45 12° NNW 22:16:15 10° NNE visible
26 May -0.5 01:27:20 10° NNW 01:27:36 11° NNW 01:27:36 11° NNW visible
26 May -0.8 21:20:03 10° WNW 21:22:14 16° NNW 21:24:25 10° NNE visible
27 May -0.6 00:35:26 10° NNW 00:36:46 14° N 00:36:46 14° N visible
27 May -0.6 23:43:38 10° N 23:44:53 12° NNE 23:46:02 10° NE visible
28 May -0.6 21:13:22 10° NW 21:14:34 12° NNW 21:15:47 10° N visible
29 May -0.8 00:26:56 10° NNW 00:27:58 16° NNW 00:27:58 16° NNW visible
29 May -1.2 23:34:58 10° NNW 23:37:11 17° NNE 23:37:19 17° NNE visible
30 May -0.9 22:43:04 10° NNW 22:44:37 13° NNE 22:46:10 10° NE visible
